www.pogodaiklimat.ru

Погода и климат >> Архив погоды >> Монголия >> Хужирт


ПОГОДА в Хужирте

  • Прогноз погоды в Хужирте
  • Монитор погоды в Хужирте

АРХИВ ПОГОДЫ в Хужирте

Время (UTC), дата Ветер
(напр.,м/с)
 
Видим.   Явления Облачность Т
(С)
Тd
(С)
f
(%)
Тe
(С)
Тes
(С)
Комфортность P
(гПа)
Po
(гПа)
Тmin
(С)
Tmax
(С)
R
(мм)
R24
(мм)
S
(см)
00 16.07 штиль 0 50 км 4/0 2000 м
[Ac und Ci]
+15.6 +10.6 72 +15 +19 1004.9 827.0 +11.5
03 16.07 штиль 0 50 км 4/0
[Ci fib]
+22.5 +13.3 56 +25 +43 комфорт 1001.4 827.9
06 16.07 В 1 50 км 8/6 1000 м
[Sc Ac lent]
+25.0 +13.9 50 +27 +32 жарко 999.1 827.3
09 16.07 СВ 2 50 км 10/8 1000 м
[Sc Ac As]
+23.4 +13.0 52 +26 +27 жарко 999.9 827.1
12 16.07 штиль 0 50 км 10/10 600 м
[Sc]
+22.4 +12.1 52 +25 +25 комфорт 1001.4 827.8 +26.5
15 16.07 штиль 0 н/о 9/9 1000 м
[Sc]
+18.8 +12.1 65 +19 +19 1005.6 829.3
18 16.07 штиль 0 50 км 5/5 1000 м
[Sc]
+15.2 +11.4 78 +15 +15 1008.1 829.4
21 16.07 штиль 0 50 км 4/4 1000 м
[Sc]
+13.8 +11.1 84 +13 +13 1009.1 829.4
00 17.07 штиль 0 50 км 8/6 1000 м
[Sc Ac lent]
+15.0 +11.6 80 +15 +16 1008.4 829.5 +13.2
03 17.07 штиль 0 50 км 9/6 1000 м
[Sc Ac lent]
+20.8 +13.0 61 +23 +26 комфорт 1005.2 830.1
06 17.07 штиль 0 50 км 9/9 1000 м
[Sc]
+25.1 +14.6 52 +28 +30 жарко 1001.6 829.4
09 17.07 СВ 2 50 км {дождь} 8/5 1000 м
[Cu Sc Ac cast Ci fib]
+25.1 +14.0 50 +27 +30 жарко 1001.6 829.4
12 17.07 штиль 0 50 км {дождь} 9/4 1000 м
[Sc Ac As Ci fib]
+23.1 +13.3 54 +26 +26 жарко 1002.5 829.1 +26.5 0.0
15 17.07 штиль 0 50 км 4/0 2000 м
[Ac lent]
+17.9 +9.5 58 +18 +18 1006.4 829.5
18 17.07 штиль 0 н/о 6/4 1000 м
[Sc Ac lent]
+15.9 +10.2 69 +16 +16 1007.8 829.5
21 17.07 штиль 0 50 км 9/8 1000 м
[Sc Ac lent]
+17.1 +10.2 64 +17 +17 1006.8 829.4
00 18.07 штиль 0 50 км 10/10 600 м
[Sc]
+16.3 +12.3 77 +16 +16 1007.7 829.7 +14.5
03 18.07 штиль 0 50 км {дождь} 9/9 1000 м
[Sc]
+19.1 +12.8 67 +20 +22 1005.4 829.3
06 18.07 штиль 0 50 км {дождь} 9/9 1000 м
[Sc]
+20.9 +13.4 62 +23 +25 комфорт 1003.7 828.9
09 18.07 штиль 0 50 км 9/6 1000 м
[Cb calv Ac trans]
+24.5 +13.7 51 +27 +29 жарко 1000.3 828.0
12 18.07 Ю 1 50 км в посл. час ливневой дождь {гроза} 9/8 1000 м
[Cb calv Ac trans]
+16.3 +13.4 83 +17 +17 1006.5 828.7 +25.0 4
15 18.07 штиль 0 50 км 3/0 2000 м
[Ac lent]
+14.2 +11.7 85 +14 +14 1007.5 828.3
18 18.07 штиль 0 50 км 4/0
[Ci]
+11.8 +9.9 88 +11 +11 1008.9 828.1
21 18.07 штиль 0 50 км 3/0 2000 м
[Ac trans]
+9.3 +7.9 91 +8 +8 1010.3 827.8
00 19.07 штиль 0 50 км 3/0
[Ci]
+12.7 +9.5 81 +12 +17 1007.9 827.8 +8.5
03 19.07 штиль 0 50 км ясно +20.3 +13.0 63 +22 +41 комфорт 1002.4 827.5
06 19.07 штиль 0 50 км 5/5 1000 м
[Cb calv]
+25.7 +13.9 48 +28 +40 жарко 997.2 826.1
09 19.07 штиль 0 50 км 9/3 1000 м
[Cb calv Ac cast]
+25.3 +13.5 48 +27 +30 жарко 996.8 825.5
12 19.07 штиль 0 50 км в посл. час ливневой дождь {гроза} 9/6 1000 м
[Cb calv Ac As]
+19.8 +11.3 58 +21 +21 комфорт 1000.8 825.9 +26.5 1
15 19.07 штиль 0 50 км ясно +15.9 +11.5 75 +16 +16 1003.6 826.1
18 19.07 штиль 0 50 км ясно +13.5 +10.7 83 +13 +13 1007.0 827.5
21 19.07 штиль 0 50 км ясно +9.9 +7.8 87 +9 +9 1008.6 826.8
00 20.07 штиль 0 50 км 3/0
[Ci ing]
+13.3 +10.1 81 +13 +17 1006.1 826.7 +9.0
03 20.07 штиль 0 50 км 3/0
[Cs]
+20.2 +11.9 59 +22 +40 комфорт 1000.6 826.0
06 20.07 С 1 50 км 8/6 1000 м
[Cb calv Ac und Ci fib]
+27.1 +13.1 42 +29 +35 жарко 994.7 824.7
09 20.07 штиль 0 50 км {гроза, ливн. осадки} 9/9 1000 м
[Cb calv]
+22.3 +12.0 52 +25 +26 комфорт 996.9 824.0
12 20.07 штиль 0 50 км {гроза, ливн. осадки} 8/6 1000 м
[Cb calv Ac lent]
+21.5 +10.6 50 +23 +23 комфорт 997.1 823.8 +28.0 0.1
15 20.07 штиль 0 50 км 4/0 2000 м
[Ac lent]
+16.1 +9.3 64 +16 +16 1004.3 826.8
18 20.07 штиль 0 50 км 6/0
[Cs]
+10.9 +8.3 84 +10 +10 1007.7 826.6
21 20.07 штиль 0 50 км 3/0
[Ci]
+8.5 +7.0 90 +8 +8 1008.5 825.9
00 21.07 штиль 0 50 км 4/0 2000 м
[Ac trans Ci]
+11.7 +8.6 81 +11 +15 1006.0 825.7 +7.4
03 21.07 штиль 0 50 км 8/0
[Cs]
+20.7 +12.9 61 +23 +39 комфорт 1000.8 826.4
06 21.07 штиль 0 50 км 9/5 1000 м
[Sc Ac cast]
+26.4 +14.5 48 +29 +34 жарко 996.6 825.9
09 21.07 ЮВ 4 50 км {гроза} 9/6 1000 м
[Sc Ac cast]
+26.8 +13.5 44 +29 +30 жарко 995.8 825.5
12 21.07 ЮЗ 1 50 км {гроза} 10/0 1500 м
[Ac As]
+23.7 +11.7 47 +25 +25 комфорт 997.1 824.9 +27.4
15 21.07 штиль 0 н/о 9/9 1000 м
[Sc]
+19.8 +10.5 55 +21 +21 комфорт 1000.2 825.4
18 21.07 Ю 1 н/о 10/10 600 м
[Sc]
+18.5 +12.5 68 +20 +20 1001.3 825.6
21 21.07 штиль 0 н/о 10/10 600 м
[Sc]
+15.9 +12.1 78 +16 +16 1002.7 825.3
00 22.07 штиль 0 20 км осадки на расстоянии туман 10/10 600 м
[Sc]
+14.3 +12.3 88 +14 +14 1003.7 825.3 +14.1 0.4
03 22.07 штиль 0 10 км дождь 10/0 600 м
[As op]
+13.5 +11.7 89 +13 +17 1004.5 825.5
06 22.07 штиль 0 50 км {дождь} 10/10 1000 м
[Sc]
+15.7 +12.6 82 +16 +16 1002.7 825.2
09 22.07 штиль 0 50 км в посл. час дождь 10/10 600 м
[Sc]
+14.9 +11.8 82 +15 +15 1002.7 824.8
12 22.07 штиль 0 50 км {дождь} 8/4 1000 м
[Sc Ac lent Ci sp]
+15.7 +11.9 78 +16 +16 1002.1 824.7 +17.5 11
15 22.07 штиль 0 50 км 3/0 2000 м
[Ac lent]
+13.1 +9.5 79 +13 +13 1004.2 825.0
18 22.07 штиль 0 н/о 8/6 1000 м
[Sc Ac lent]
+13.3 +9.4 77 +13 +13 1003.8 824.8
21 22.07 штиль 0 50 км 4/0 2000 м
[Ac As]
+12.8 +9.1 78 +12 +12 1004.2 824.8

 

Местоположение метеостанции Хужирт (Монголия): широта 46.90 долгота 102.76 высота над уровнем моря 1662 м.

В архиве по умолчанию представлена погода в Хужирте за последнюю неделю. Архивные данные за месяц целиком и за предыдущие месяцы, начиная с января 2011 года, Вы можете получить, выбрав интересующий диапазон дат из раскрывающегося списка и нажав кнопку "Ввод!".


*Определитесь, кто Вы:
робот инопланетянин человек

Внимание! Время в таблицах - всемирное. Для получения местного времени необходимо прибавить поправку, которая равна 8 ч.

Смотрите также архив погоды в соседних городах и на ближайших метеорологических станциях:

Погода в Арвайхээре (Монголия) (70 км)
Погода в Бат Олжий Вунд (Монголия) (79 км)
Погода в Цэцэрлэге (Монголия) (116 км)
Погода в Баянхонгоре (Монголия) (181 км)
Погода в Сайкхан-Ову (Монголия) (184 км)
Погода в Галууте (Монголия) (201 км)
Погода в Эрдэнэмандале (Монголия) (209 км)
Погода в Булгане (Монголия) (219 км)
Погода в Богде (Монголия) (255 км)
Погода в Тариате (Монголия) (275 км)

Пояснения к столбцам:

Ветер - указаны скорость ветра в м/с - средняя за 10 мин, порывы в срок и между сроками (в фигурных скобках) и направление, откуда дует ветер: С - северный, СВ - северо-восточный, В - восточный, ЮВ - юго-восточный, Ю - южный, ЮЗ - юго-западный, З - западный, СЗ - северо-западный.
Видимость - горизонтальная дальность видимости в метрах или километрах. При видимости от 1 до 10 км при отсутствии осадков обычно наблюдается дымка, при ухудшении видимости до 1 км и менее - туман. В сухую погоду видимость может ухудшаться дымом, пылью или мглою.
Явления - указаны атмосферные явления, наблюдавшиеся в срок или в последний час перед сроком; фигурными скобками обозначены явления, наблюдавшиеся между сроками (за 1-3 часа до срока); квадратными скобками обозначены град или гололедные отложения с указанием их диаметра в мм.
Облачность - указаны через наклонную черту общая и нижняя облачность в баллах и высота нижней границы облаков в метрах; квадратными скобками обозначены формы облаков: Ci - перистые, Cs - перисто-слоистые, Cc - перисто-кучевые, Ac - высококучевые, As - высокослоистые, Sc - слоисто-кучевые, Ns - слоисто-дождевые, Cu - кучевые, Cb - кучево-дождевые. Подробнее классификацию облаков см. в Атласе облаков (PDF).
T - Температура воздуха - температура, измеренная на высоте 2 м над землей.
Td - Температура точки росы - температура, при понижении до которой содержащийся в воздухе водяной пар достигнет насыщения.
f - Относительная влажность воздуха - влажноcть воздуха, измеренная на высоте 2 м над землей.
Te - Эффективная температура - температура, которую ощущает одетый по сезону человек в тени. Характеристика душности погоды. При расчете учитывается влияние влажности воздуха и скорости ветра на теплоощущения человека.
Tes - Эффективная температура на солнце - температура, которую ощущает человек, с поправкой на солнечный нагрев. Характеристика знойности погоды. Зависит от высоты солнца над горизонтом, облачности и скорости ветра. Ночью, в пасмурную погоду, а также при ветре 12 м/с и более поправка равна нулю.
P - Атмосферное давление - приведенное к уровню моря атмосферное давление.
Po - Атмосферное давление - измеренное на уровне метеостанции атмосферное давление.
Tmin - Минимальная температура - минимум температуры воздуха на высоте 2 м над землей.
Tmax - Максимальная температура - максимум температуры воздуха на высоте 2 м над землей.
R - Количество осадков - Количество выпавших осадков за период времени, мм. При наведении курсора мыши на число - период времени, за который выпало указанное количество осадков.
R24 - Количество осадков - Количество выпавших осадков за 24 часа, мм.
S - Снежный покров - Высота снежного покрова, см. При наведении курсора мыши на число - состояние снежного покрова и степень покрытия местности в баллах.